Location: Katzenstein
(51.7484°N, 10.2155°E)
Time: 05:50:27
(UTC+00:00)

IDEFIX/ARIANE 42P - Pass Details

Date: 17 February 2020
Orbit: 784 x 804 km, 98.3° (Epoch: 09 April)

Event Time Altitude Azimuth Distance (km) Brightness Sun altitude
Rises 03:44:15 0° 11° (N) 3,324 6.1 -26.3°
Reaches altitude 10° 03:46:40 10° 5° (N) 2,387 5.3 -25.9°
Enters shadow 03:50:28 39° 331° (NNW) 1,180 3.3 -25.3°
